FLOCK 4A-17 (44088 NORAD) Tracking and Keplerian Element Data

This shows tracking and keplerian element data for the satellite.

Feedback or suggestion? Click here.




ElementValue
Catalog44088
NameFLOCK 4A-17
Epoch Orbit430
Epoch Day119.68391703
Epoch Year2019
RAAN179.9975
Inclination97.4614
Eccentricity0.0014154
Argument of Perigee177.9637
Mean Anonmoly182.1659
Mean Motion15.21515336
Decay Rate7.65E-06
L11 44088U 19018L 19119.68391703 .00000765 00000-0 37059-4 0 9997
L22 44088 97.4614 179.9975 0014154 177.9637 182.1659 15.21515336 4300

Live tracking and technical data element details for FLOCK 4A-17 (NORAD 44088). FLOCK 4A-17 can be tracked NOW for your location showing map with azimuth and elevation plus other details from your city location.

Track the satellite on the map from your city or location and see movement details for azimuth, elevation, latitude, longitude, range, height, and movement on the map or in text.







IsCatalogInMostPopularTable: catalog: 44088, numindb: 30
Update: records affected: 1



GetName: 44088 FLOCK 4A-17

Hit Count: updated at: Tue, 20 Aug 2019 18:57:12 GMT